Weather History for Tomahawk, WI

Change the Weather History Date:

Friday, July 12, 2013

  Actual Average (KRHI) Record (KRHI)
Temperature  
Mean Temperature 66 °F 67 °F  
Max Temperature 79 °F 79 °F 105 °F (1936)
Min Temperature 54 °F 55 °F 42 °F (1918)
Degree Days  
Heating Degree Days 0 2  
Month to date heating degree days 24  
Since 1 June heating degree days 158  
Since 1 July heating degree days 24  
Cooling Degree Days 2 4  
Month to date cooling degree days 38  
Year to date cooling degree days 103  
Since 1 June cooling degree days 91  
Growing Degree Days 16 (Base 50)    
Moisture  
Dew Point 56 °F    
Average Humidity 75    
Maximum Humidity 95    
Minimum Humidity 45    
Precipitation  
Precipitation 0.00 in 0.14 in 2.00 in (1986)
Month to date precipitation 1.62  
Year to date precipitation 15.19  
Snow  
Snow 0.00 in - 0.00 in ()
Month to date snowfall  
Since 1 June snowfall  
Since 1 July snowfall  
Snow Depth -    
Sea Level Pressure  
Sea Level Pressure 30.10 in    
Wind  
Wind Speed 1 mph (South)    
Max Wind Speed 7 mph    
Max Gust Speed -    
Visibility 10 miles    
Events      
T = Trace of Precipitation, MM = Missing Value Source: NWS Daily Summary

Daily Weather History Graph

Daily Weather History Graph

Search for Another Location

Airport:

Trip Planner

Search our weather history database for the weather conditions in past years. The results will help you decide how hot, cold, wet, or windy it might be!

Date:

Astronomy

Jul. 12, 2013 Rise Set
Actual Time 5:22 AM CDT 8:46 PM CDT
Civil Twilight 4:46 AM CDT 9:23 PM CDT
Nautical Twilight 3:57 AM CDT 10:11 PM CDT
Astronomical Twilight 2:56 AM CDT 11:12 PM CDT
Moon 9:54 AM CDT (7/12) 10:40 PM CDT (7/12)
Length of Visible Light 16h 37m
Length of Day
15h 23m
Waxing Crescent, 17% of the Moon is Illuminated
Jul 12
Waxing Crescent
Jul 15
First Quarter
Jul 22
Full
Jul 29
Last Quarter
Aug 6
New

Hourly Weather History & Observations

Time (CDT) Temp. Dew Point Humidity Pressure Visibility Wind Dir Wind Speed Gust Speed Precip Events Conditions
12:15 AM 58.6 °F 54.5 °F 86% 30.10 in 10.0 mi Calm Calm - N/A   Clear
12:35 AM 58.5 °F 54.7 °F 87% 30.10 in 10.0 mi Calm Calm - N/A   Clear
12:55 AM 58.5 °F 54.5 °F 87% 30.09 in 10.0 mi Calm Calm - N/A   Clear
1:15 AM 59.0 °F 54.5 °F 85% 30.09 in 10.0 mi Calm Calm - N/A   Clear
1:35 AM 58.8 °F 54.9 °F 87% 30.10 in 10.0 mi Calm Calm - N/A   Clear
1:55 AM 57.6 °F 54.1 °F 88% 30.09 in 10.0 mi Calm Calm - N/A   Clear
2:15 AM 56.5 °F 53.6 °F 90% 30.10 in 10.0 mi Calm Calm - N/A   Clear
2:35 AM 56.5 °F 54.0 °F 91% 30.10 in 10.0 mi Calm Calm - N/A   Clear
2:55 AM 56.3 °F 53.8 °F 91% 30.10 in 10.0 mi Calm Calm - N/A   Clear
3:15 AM 56.3 °F 53.8 °F 91% 30.11 in 10.0 mi Calm Calm - N/A   Clear
3:35 AM 55.4 °F 53.1 °F 92% 30.10 in 10.0 mi Calm Calm - N/A   Clear
3:55 AM 56.3 °F 53.8 °F 91% 30.10 in 10.0 mi Calm Calm - N/A   Clear
4:15 AM 56.3 °F 54.0 °F 92% 30.10 in 10.0 mi Calm Calm - N/A   Clear
4:35 AM 55.8 °F 53.4 °F 92% 30.11 in 10.0 mi Calm Calm - N/A   Clear
4:55 AM 54.9 °F 52.9 °F 93% 30.12 in 7.0 mi Calm Calm - N/A   Clear
5:15 AM 55.0 °F 53.4 °F 94% 30.12 in 7.0 mi Calm Calm - N/A   Clear
5:35 AM 54.9 °F 53.2 °F 94% 30.12 in 5.0 mi Calm Calm - N/A   Clear
5:55 AM 56.1 °F 54.7 °F 95% 30.13 in 5.0 mi Calm Calm - N/A   Clear
6:15 AM 58.1 °F 56.5 °F 94% 30.13 in 7.0 mi Calm Calm - N/A   Clear
6:35 AM 59.0 °F 56.8 °F 93% 30.13 in 7.0 mi Calm Calm - N/A   Scattered Clouds
6:55 AM 59.9 °F 57.4 °F 91% 30.13 in 7.0 mi Calm Calm - N/A   Clear
7:15 AM 61.5 °F 57.7 °F 87% 30.15 in 10.0 mi Calm Calm - N/A   Clear
7:35 AM 61.5 °F 58.1 °F 89% 30.15 in 10.0 mi Calm Calm - N/A   Scattered Clouds
7:55 AM 63.5 °F 59.5 °F 87% 30.15 in 10.0 mi Calm Calm - N/A   Scattered Clouds
8:35 AM 67.1 °F 59.5 °F 77% 30.15 in 10.0 mi Calm Calm - N/A   Clear
8:55 AM 68.7 °F 59.9 °F 73% 30.15 in 10.0 mi South 3.5 mph - N/A   Clear
9:35 AM 71.4 °F 58.6 °F 64% 30.14 in 10.0 mi SSW 5.8 mph - N/A   Clear
10:15 AM 74.3 °F 58.8 °F 58% 30.14 in 10.0 mi South 6.9 mph - N/A   Clear
10:35 AM 73.9 °F 58.1 °F 58% 30.14 in 10.0 mi SSW 6.9 mph - N/A   Clear
10:55 AM 75.4 °F 58.1 °F 55% 30.13 in 10.0 mi South 5.8 mph - N/A   Clear
12:15 PM 77.0 °F 56.3 °F 49% 30.12 in 10.0 mi South 5.8 mph - N/A   Clear
2:55 PM 79.5 °F 57.9 °F 47% 30.09 in 10.0 mi SSE 4.6 mph - N/A   Clear
3:15 PM 79.2 °F 57.0 °F 46% 30.09 in 10.0 mi SSE 4.6 mph - N/A   Clear
3:35 PM 79.2 °F 56.1 °F 45% 30.09 in 10.0 mi South 4.6 mph - N/A   Clear
5:15 PM 78.8 °F 57.0 °F 47% 30.08 in 10.0 mi South 5.8 mph - N/A   Clear
5:55 PM 78.1 °F 57.4 °F 49% 30.07 in 10.0 mi South 4.6 mph - N/A   Clear
6:35 PM 77.5 °F 58.1 °F 51% 30.07 in 10.0 mi South 4.6 mph - N/A   Clear
6:55 PM 77.0 °F 57.0 °F 50% 30.07 in 10.0 mi South 4.6 mph - N/A   Clear
7:15 PM 76.1 °F 57.4 °F 52% 30.07 in 7.0 mi Calm Calm - N/A   Clear
7:35 PM 74.7 °F 57.9 °F 56% 30.07 in 10.0 mi SSE 3.5 mph - N/A   Clear
7:55 PM 72.3 °F 58.3 °F 61% 30.07 in 10.0 mi Calm Calm - N/A   Clear
8:15 PM 71.1 °F 57.7 °F 63% 30.07 in 10.0 mi Calm Calm - N/A   Clear
8:55 PM 66.7 °F 58.5 °F 75% 30.06 in 10.0 mi Calm Calm - N/A   Clear
9:15 PM 65.7 °F 57.6 °F 75% 30.06 in 10.0 mi Calm Calm - N/A   Clear
9:35 PM 66.0 °F 56.8 °F 72% 30.06 in 10.0 mi Calm Calm - N/A   Clear
9:55 PM 66.0 °F 56.3 °F 71% 30.06 in 10.0 mi Calm Calm - N/A   Clear
10:15 PM 65.7 °F 55.6 °F 70% 30.06 in 10.0 mi Calm Calm - N/A   Clear
10:35 PM 66.2 °F 55.0 °F 67% 30.06 in 10.0 mi Calm Calm - N/A   Clear
10:55 PM 64.4 °F 54.7 °F 71% 30.06 in 10.0 mi Calm Calm - N/A   Clear
11:15 PM 62.2 °F 54.5 °F 76% 30.07 in 10.0 mi Calm Calm - N/A   Clear
11:35 PM 62.1 °F 54.5 °F 76% 30.08 in 10.0 mi Calm Calm - N/A   Clear
11:55 PM 61.7 °F 54.5 °F 77% 30.07 in 10.0 mi Calm Calm - N/A   Clear